BMCB-7 Weather Reports


time (UTC)temp
C
wind
direction
speed
KPH
gust
KPH
rain 1hr
cm
rain 24hr
cm
rain mn
cm
humidity
%
barometer
mb
20260902123046 19 271 11.3 19.3 0.00 0.00 0.00 58 1027.0
20260902122048 19 261 9.7 14.5 0.00 0.00 0.00 58 1027.0
20260902121045 19 261 9.7 14.5 0.00 0.00 0.00 59 1027.1
20260902120046 18 267 11.3 22.5 0.00 0.00 0.00 59 1027.1
20260902112043 18 281 11.3 19.3 0.00 0.00 0.00 62 1027.1
20260902111043 18 254 9.7 19.3 0.00 0.00 0.00 64 1027.3
20260902110046 18 258 12.9 20.9 0.00 0.00 0.00 65 1027.4
20260902104045 18 267 11.3 20.9 0.00 0.00 0.00 66 1027.5
20260902103042 18 283 11.3 17.7 0.00 0.00 0.00 66 1027.6
20260902102043 17 272 9.7 16.1 0.00 0.00 0.00 65 1027.6
20260902101043 18 265 11.3 17.7 0.00 0.00 0.00 65 1027.6
20260902100043 17 271 11.3 17.7 0.00 0.00 0.00 68 1027.6
20260902094042 16 257 9.7 17.7 0.00 0.00 0.00 70 1027.7
20260902093043 16 255 9.7 17.7 0.00 0.00 0.00 71 1027.7
20260902092045 16 265 9.7 17.7 0.00 0.00 0.00 73 1027.7
20260902091044 16 261 9.7 16.1 0.00 0.00 0.00 77 1027.7
20260902085044 16 271 8.0 14.5 0.00 0.00 0.00 78 1027.6
20260902084043 16 279 11.3 17.7 0.00 0.00 0.00 78 1027.6
20260902083042 16 263 9.7 17.7 0.00 0.00 0.00 78 1027.6
20260902082042 15 263 8.0 16.1 0.00 0.00 0.00 80 1027.6
20260902081043 15 276 9.7 12.9 0.00 0.00 0.00 81 1027.6
20260902080042 15 262 8.0 11.3 0.00 0.00 0.00 82 1027.4
20260902074042 14 248 6.4 9.7 0.00 0.00 0.00 84 1027.4
20260902073041 13 221 3.2 4.8 0.00 0.00 0.00 86 1027.4
20260902071041 12 229 4.8 6.4 0.00 0.00 0.00 89 1027.3
20260902070043 12 239 3.2 6.4 0.00 0.00 0.00 92 1027.3
20260902064044 11 245 4.8 6.4 0.00 0.00 0.00 91 1027.3
20260902063043 11 244 4.8 8.0 0.00 0.00 0.00 91 1027.4
20260902062042 11 209 3.2 8.0 0.00 0.00 0.00 91 1027.3
20260902061043 11 249 3.2 8.0 0.00 0.00 0.00 92 1027.2
20260902060043 11 277 3.2 4.8 0.00 0.00 0.00 93 1027.1
20260902055042 11 266 4.8 6.4 0.00 0.00 0.00 91 1027.0
20260902054044 11 285 3.2 6.4 0.00 0.00 0.00 92 1027.1
20260902053041 11 340 3.2 4.8 0.00 0.00 0.00 92 1027.0
20260902052042 11 309 3.2 4.8 0.00 0.00 0.00 94 1027.0
20260902051042 10 295 3.2 4.8 0.00 0.00 0.00 94 1026.9
20260902050042 10 267 1.6 4.8 0.00 0.00 0.00 95 1026.7
20260902045043 10 349 1.6 4.8 0.00 0.00 0.00 95 1026.8
20260902044040 10 32 0.0 0.0 0.00 0.00 0.00 95 1026.8
20260902042041 10 32 1.6 3.2 0.00 0.00 0.00 95 1026.8
20260902041042 10 32 1.6 4.8 0.00 0.00 0.00 94 1026.7
20260902040040 10 30 3.2 4.8 0.00 0.00 0.00 94 1026.6
20260902035040 10 29 1.6 3.2 0.00 0.00 0.00 93 1026.7
20260902034040 10 276 1.6 4.8 0.00 0.00 0.00 92 1026.7
20260902033040 11 241 4.8 8.0 0.00 0.00 0.00 91 1026.8
20260902032040 11 276 3.2 8.0 0.00 0.00 0.00 89 1026.8
20260902031041 12 220 1.6 4.8 0.00 0.00 0.00 86 1027.0
20260902030040 12 157 1.6 4.8 0.00 0.00 0.00 86 1027.0
20260902025041 11 172 1.6 4.8 0.00 0.00 0.00 90 1027.0
20260902023041 11 201 1.6 4.8 0.00 0.00 0.00 90 1026.9
20260902022040 11 162 1.6 4.8 0.00 0.00 0.00 90 1027.0
20260902021042 11 191 3.2 6.4 0.00 0.00 0.00 90 1027.0
20260902020041 11 276 4.8 8.0 0.00 0.00 0.00 91 1027.0
20260902015042 11 275 6.4 8.0 0.00 0.00 0.00 89 1027.0
20260902014045 12 275 6.4 8.0 0.00 0.00 0.00 87 1026.9
20260902013051 12 278 3.2 6.4 0.00 0.00 0.00 88 1026.9
20260902012055 12 278 3.2 6.4 0.00 0.00 0.00 89 1027.0
20260902011059 12 247 1.6 4.8 0.00 0.00 0.00 89 1027.1
20260902010058 12 233 1.6 3.2 0.00 0.00 0.00 89 1027.2
20260902005103 11 216 1.6 3.2 0.00 0.00 0.00 88 1027.2
20260902004103 11 197 1.6 3.2 0.00 0.00 0.00 87 1027.1
20260902003101 12 199 3.2 4.8 0.00 0.00 0.00 87 1027.1
20260902002101 12 226 3.2 4.8 0.00 0.00 0.00 85 1027.1
20260902001140 12 229 3.2 4.8 0.00 0.00 0.00 84 1027.0
20260902000156 12 172 1.6 4.8 0.00 0.00 0.00 84 1027.1
20260901234152 12 158 1.6 3.2 0.00 0.00 0.00 84 1027.1
20260901233152 12 158 1.6 3.2 0.00 0.00 0.00 84 1027.1
20260901232152 12 169 1.6 4.8 0.00 0.00 0.00 84 1027.2
20260901231147 12 270 3.2 6.4 0.00 0.00 0.00 83 1027.2
20260901230147 12 287 4.8 6.4 0.00 0.00 0.00 83 1027.2
20260901225143 12 285 3.2 6.4 0.00 0.00 0.00 83 1027.3
20260901224140 12 288 4.8 8.0 0.00 0.00 0.00 83 1027.3
20260901222140 12 278 4.8 8.0 0.00 0.00 0.00 82 1027.4
20260901221138 13 282 4.8 6.4 0.00 0.00 0.00 81 1027.3
20260901220139 12 282 4.8 6.4 0.00 0.00 0.00 82 1027.3
20260901215133 12 282 6.4 8.0 0.00 0.00 0.00 82 1027.5
20260901214135 12 290 4.8 6.4 0.00 0.00 0.00 82 1027.5
20260901213132 13 278 4.8 8.0 0.00 0.00 0.00 80 1027.5
20260901212134 13 303 4.8 6.4 0.00 0.00 0.00 77 1027.5
20260901210130 14 300 6.4 8.0 0.00 0.00 0.00 76 1027.4
20260901204127 15 302 8.0 9.7 0.00 0.00 0.00 74 1027.4
20260901203125 15 310 6.4 9.7 0.00 0.00 0.00 73 1027.4
20260901202125 15 294 6.4 8.0 0.00 0.00 0.00 72 1027.3
20260901201128 15 284 6.4 8.0 0.00 0.00 0.00 73 1027.2
20260901200124 15 288 4.8 6.4 0.00 0.00 0.00 72 1027.1
20260901195119 15 280 4.8 6.4 0.00 0.00 0.00 71 1027.0
20260901194118 15 284 6.4 8.0 0.00 0.00 0.00 71 1026.8
20260901193116 15 288 6.4 8.0 0.00 0.00 0.00 70 1026.9
20260901192117 15 285 4.8 6.4 0.00 0.00 0.00 69 1026.8
20260901191115 16 287 3.2 4.8 0.00 0.00 0.00 68 1026.8
20260901190114 16 285 4.8 6.4 0.00 0.00 0.00 69 1026.7
20260901185114 16 278 6.4 8.0 0.00 0.00 0.00 68 1026.6
20260901184110 16 286 4.8 8.0 0.00 0.00 0.00 66 1026.5
20260901183108 17 287 6.4 11.3 0.00 0.00 0.00 65 1026.4
20260901182112 17 292 8.0 14.5 0.00 0.00 0.00 63 1026.3
20260901181106 18 289 8.0 12.9 0.00 0.00 0.00 61 1026.3
20260901180109 18 298 9.7 20.9 0.00 0.00 0.00 59 1026.3
20260901175107 18 255 9.7 20.9 0.00 0.00 0.00 58 1026.3
20260901174105 19 265 6.4 9.7 0.00 0.00 0.00 57 1026.2
20260901172103 18 259 12.9 20.9 0.00 0.00 0.00 57 1026.2
20260901171104 19 280 11.3 19.3 0.00 0.00 0.00 56 1026.0
20260901170100 20 264 9.7 16.1 0.00 0.00 0.00 53 1025.9
20260901164101 20 235 9.7 17.7 0.00 0.00 0.00 52 1025.8
20260901163058 20 224 8.0 16.1 0.00 0.00 0.00 52 1025.8
20260901162059 21 241 9.7 16.1 0.00 0.00 0.00 50 1025.7
20260901161055 21 254 12.9 22.5 0.00 0.00 0.00 50 1025.7
20260901160057 20 272 8.0 19.3 0.00 0.00 0.00 53 1025.9
20260901155054 20 263 12.9 19.3 0.00 0.00 0.00 51 1025.8
20260901154055 20 245 8.0 19.3 0.00 0.00 0.00 53 1025.9
20260901153054 20 259 11.3 20.9 0.00 0.00 0.00 50 1025.8
20260901152053 20 266 12.9 20.9 0.00 0.00 0.00 51 1025.8
20260901151053 21 293 9.7 17.7 0.00 0.00 0.00 51 1025.7
20260901145051 21 262 11.3 20.9 0.00 0.00 0.00 53 1025.7
20260901144052 21 279 12.9 22.5 0.00 0.00 0.00 53 1025.7
20260901143051 21 284 11.3 22.5 0.00 0.00 0.00 53 1025.7
20260901142054 20 284 11.3 22.5 0.00 0.00 0.00 55 1025.9
20260901141052 20 245 12.9 22.5 0.00 0.00 0.00 56 1026.0
20260901140055 20 251 14.5 24.1 0.00 0.00 0.00 55 1025.9
20260901135048 21 268 12.9 20.9 0.00 0.03 0.00 54 1025.9
20260901134049 21 265 12.9 20.9 0.00 0.03 0.00 56 1026.0
20260901133050 21 269 9.7 14.5 0.00 0.03 0.00 56 1026.1
20260901132046 20 310 9.7 14.5 0.00 0.05 0.00 57 1026.2
20260901131044 20 286 11.3 16.1 0.00 0.05 0.00 61 1026.3
20260901125047 18 274 11.3 20.9 0.00 0.05 0.00 65 1026.6
20260901124046 18 267 14.5 25.7 0.00 0.05 0.00 64 1026.6